sat.trackr.live / text

‹ back to catalog

STARLINK-37287

NORAD 68684 · 2026-077Y

PAYLOAD ACTIVE UNKNOWN

§ Identity

Operator
Country
US
Launch date
2026-04-11
Launch site
AFWTR
Launch vehicle
Mass (kg)
RCS (m²)

Purposes: comms

External: N2YO · Heavens-Above · Gunter

§ Orbital elements

Epoch: 2026-09-20T02:03:53.842176Z

Period
93.91 min
Inclination
97.2880°
Eccentricity
0.0001228
Mean motion
15.33450380 rev/d
Perigee alt
464.7 km
Apogee alt
466.4 km
Semi-major
6,843.7 km
B*
5.2129e-4
RAAN
133.0497°
Arg perigee
99.4744°
Mean anomaly
260.6638°
Rev number
2,495

§ Raw data

STARLINK-372871 68684U 26077Y   26263.08603984  .00016794  00000+0  52129-3 0  99992 68684  97.2880 133.0497 0001228  99.4744 260.6638 15.33450380 24958

JSON: /api/v1/satellites/68684 · /tle

For live sub-satellite position, see the globe view (requires WebGL).

§ Visibility from observer

Set your observer location to see the next 7 days of passes ≥ 10°. The values pass through the URL so the page stays shareable.

No JS? Fill the form by hand. The geolocation button needs JavaScript.